Location: Berlijn
(52.5200°N, 13.4050°E)
Time: 17:06:43
(UTC+02:00)

ISS - Visible Passes

Search period start: 23 October 2021 00:00
Search period end: 01 November 2021 23:00
Orbit: 417 x 423 km, 51.6° (Epoch: 23 October)

Date Brightness Start Highest point End Pass type
(mag) Time Alt. Az. Time Alt. Az. Time Alt. Az.
23 Oct -0.9 06:16:55 10° S 06:18:45 14° SE 06:20:35 10° ESE visible
24 Oct -2.3 07:04:43 10° SW 07:07:50 35° SSE 07:10:57 10° E visible
25 Oct -1.9 06:17:49 10° SSW 06:20:42 27° SSE 06:23:36 10° E visible
26 Oct -1.6 05:32:52 18° SSE 05:33:37 20° SE 05:36:08 10° E visible
26 Oct -3.2 07:06:40 10° WSW 07:10:00 58° SSE 07:13:19 10° E visible
27 Oct -0.6 04:47:48 12° ESE 04:47:48 12° ESE 04:48:25 10° ESE visible
27 Oct -3.0 06:20:48 20° SW 06:22:47 46° SSE 06:26:03 10° E visible
28 Oct -2.6 05:35:38 36° SSE 05:35:38 36° SSE 05:38:44 10° E visible
28 Oct -3.6 07:08:50 10° W 07:12:13 76° S 07:15:35 10° E visible
29 Oct -0.8 04:50:23 16° ESE 04:50:23 16° ESE 04:51:21 10° E visible
29 Oct -3.6 06:23:22 28° WSW 06:24:57 69° S 06:28:19 10° E visible
30 Oct -3.2 05:38:04 53° SE 05:38:04 53° SE 05:41:01 10° E visible
30 Oct -3.7 07:11:03 10° W 07:14:26 77° S 07:17:48 10° E visible
31 Oct -0.9 03:52:44 17° E 03:52:44 17° E 03:53:42 10° E visible
31 Oct -3.8 05:25:43 32° W 05:27:08 79° S 05:30:31 10° E visible
01 Nov -3.3 04:40:21 59° ESE 04:40:21 59° ESE 04:43:12 10° E visible
01 Nov -3.4 06:13:19 11° W 06:16:35 60° SSW 06:19:53 10° ESE visible
